1491080400.61,1917,15.25,73794.5,-1.53,-32.69,-33.03,0,*64
1491080401.89,1918,15.25,73788.3,-1.53,-32.63,-32.85,0,*6E
1491080403.17,1919,15.25,73792.3,-1.53,-32.45,-32.79,0,*68
1491080404.45,1920,15.25,73790.3,-1.53,-32.45,-32.85,0,*61
1491080405.68,1921,15.25,73790.8,-1.53,-32.35,-32.69,0,*65
1491080406.91,1922,15.25,73792.3,-1.55,-32.39,-32.75,0,*61
1491080408.14,1923,15.25,73792.0,-1.51,-32.35,-32.79,0,*64
1491080409.34,1924,15.25,73792.8,-1.55,-32.35,-32.69,0,*66
1491080410.57,1925,15.25,73788.0,-1.51,-32.29,-32.69,0,*6E
1491080411.8,1926,15.25,73790.0,-1.55,-32.39,-32.75,0,*65
1491080413.07,1927,15.25,73788.5,-1.53,-32.29,-32.45,0,*60
1491080414.33,1928,15.25,73790.3,-1.53,-32.01,-32.45,0,*65
1491080415.61,1929,15.25,73792.3,-1.53,-32.19,-32.45,0,*6D
1491080416.87,1930,15.25,73796.0,-1.51,-31.95,-32.19,0,*69
1491080418.1,1931,15.25,73792.3,-1.53,-32.01,-32.35,0,*6A
1491080419.36,1932,15.25,73786.5,-1.53,-31.95,-32.13,0,*63
1491080420.56,1933,15.25,73784.0,-1.51,-32.01,-32.35,0,*6A
1491080421.79,1934,15.25,73786.5,-1.53,-32.35,-32.69,0,*61
1491080423.01,1935,15.25,73784.5,-1.53,-31.79,-32.13,0,*66
1491080424.27,1936,15.25,73782.3,-1.51,-31.57,-31.85,0,*67
1491080425.49,1937,15.25,73780.3,-1.51,-31.85,-32.13,0,*65
1491080426.75,1938,15.25,73780.8,-1.51,-31.95,-32.19,0,*61
1491080428.03,1939,15.25,73778.8,-1.53,-31.57,-31.85,0,*6A
1491080429.31,1940,15.25,73786.8,-1.53,-31.85,-32.19,0,*6D
1491080430.57,1941,15.25,73784.0,-1.51,-32.19,-32.45,0,*61
1491080431.81,1942,15.25,73780.8,-1.51,-32.29,-32.45,0,*61
1491080433.07,1943,15.25,73784.5,-1.51,-32.19,-32.45,0,*63
1491080434.31,1944,15.25,73786.0,-1.51,-32.29,-32.45,0,*67
1491080435.55,1945,15.25,73788.8,-1.51,-32.01,-32.19,0,*65
1491080436.8,1946,15.25,73788.0,-1.51,-32.19,-32.45,0,*66
1491080438.05,1947,15.25,73796.0,-1.51,-32.45,-32.79,0,*61
1491080439.29,1948,15.25,73798.0,-1.51,-32.69,-32.85,0,*63
1491080440.5,1949,15.25,73796.5,-1.51,-32.69,-33.03,0,*6D
1491080441.75,1950,15.25,73794.3,-1.53,-32.79,-32.91,0,*6C
1491080442.95,1951,15.25,73794.3,-1.51,-32.13,-32.35,0,*6D
1491080444.19,1952,15.25,73788.5,-1.51,-32.19,-32.51,0,*66
1491080445.41,1953,15.25,73788.8,-1.53,-32.35,-32.69,0,*60
1491080446.67,1954,15.25,73794.5,-1.53,-32.51,-32.85,0,*67
1491080447.9,1955,15.25,73792.0,-1.53,-32.69,-32.91,0,*68
1491080449.14,1956,15.25,73792.5,-1.53,-32.69,-32.91,0,*6B
1491080450.39,1957,15.25,73790.0,-1.53,-32.63,-32.91,0,*60
1491080451.67,1958,15.25,73792.8,-1.53,-32.29,-32.63,0,*6C
1491080452.92,1959,15.25,73790.0,-1.53,-32.29,-32.51,0,*6C
1491080454.2,1960,15.25,73796.0,-1.53,-32.19,-32.45,0,*60
1491080455.46,1961,15.25,73794.8,-1.53,-32.19,-32.51,0,*64
1491080456.72,1962,15.25,73788.3,-1.53,-32.19,-32.51,0,*67
1491080457.94,1963,15.25,73782.8,-1.53,-32.13,-32.35,0,*6E
1491080459.22,1964,15.25,73774.8,-1.53,-32.19,-32.45,0,*64
1491080460.45,1965,15.25,73768.5,-1.51,-32.01,-32.29,0,*64
1491080461.71,1966,15.25,73772.5,-1.53,-31.45,-31.61,0,*69
1491080463.0,1967,15.25,73768.0,-1.53,-31.23,-31.23,0,*6E
1491080464.25,1968,15.25,73764.3,-1.53,-31.45,-31.61,0,*67
1491080465.51,1969,15.25,73760.5,-1.51,-31.23,-31.57,0,*61
1491080466.71,1970,15.25,73758.0,-1.51,-31.29,-31.45,0,*60
1491080467.96,1971,15.25,73762.0,-1.49,-31.51,-31.67,0,*67
1491080469.24,1972,15.25,73760.8,-1.49,-31.73,-31.95,0,*69
1491080470.53,1973,15.25,73762.8,-1.47,-31.73,-31.95,0,*66
1491080471.78,1974,15.25,73760.8,-1.47,-31.51,-31.67,0,*6C
1491080473.0,1975,15.25,73764.0,-1.49,-31.67,-31.79,0,*69
1491080474.28,1976,15.25,73766.3,-1.47,-31.73,-31.95,0,*63
1491080475.57,1977,15.25,73770.0,-1.47,-31.73,-32.07,0,*6A
1491080476.82,1978,15.25,73770.5,-1.47,-32.23,-32.63,0,*61
1491080478.07,1979,15.25,73770.8,-1.49,-32.23,-32.45,0,*6A
1491080479.28,1980,15.25,73770.0,-1.49,-32.23,-32.57,0,*6F
1491080480.56,1981,15.25,73768.5,-1.47,-32.45,-32.79,0,*6C
1491080481.84,1982,15.25,73772.3,-1.49,-32.45,-32.75,0,*6D
1491080483.11,1983,15.19,73772.3,-1.49,-32.29,-32.63,0,*61
1491080484.36,1984,15.19,73772.8,-1.47,-32.23,-32.45,0,*66
1491080485.62,1985,15.25,73776.3,-1.47,-32.39,-32.45,0,*6C
1491080486.84,1986,15.25,73776.3,-1.49,-32.39,-32.57,0,*62
1491080488.09,1987,15.25,73780.8,-1.49,-32.13,-32.45,0,*68
1491080489.31,1988,15.25,73776.0,-1.47,-32.23,-32.57,0,*69
1491080490.55,1989,15.25,73780.5,-1.49,-32.13,-32.29,0,*6C
1491080491.8,1990,15.25,73780.3,-1.49,-32.13,-32.29,0,*64
1491080493.05,1991,15.25,73782.5,-1.49,-32.23,-32.63,0,*68
1491080494.3,1992,15.25,73782.0,-1.47,-32.23,-32.45,0,*61
1491080495.57,1993,15.25,73784.0,-1.49,-32.29,-32.45,0,*64
1491080496.8,1994,15.25,73778.8,-1.47,-32.13,-32.39,0,*6F
1491080498.05,1995,15.19,73772.5,-1.47,-32.39,-32.63,0,*69
1491080499.34,1996,15.25,73778.5,-1.47,-32.45,-32.75,0,*66
1491080500.6,1997,15.19,73778.8,-1.47,-32.57,-32.79,0,*68
1491080501.87,1998,15.25,73786.5,-1.49,-32.29,-32.63,0,*6B
1491080503.12,1999,15.25,73784.5,-1.49,-32.39,-32.63,0,*6B
1491080504.37,2000,15.25,73788.8,-1.49,-32.39,-32.75,0,*66
1491080505.65,2001,15.19,73784.3,-1.49,-32.45,-32.79,0,*60
1491080506.92,2002,15.25,73784.5,-1.49,-32.63,-32.79,0,*67
1491080508.2,2003,15.25,73788.8,-1.49,-32.45,-32.85,0,*61
1491080509.48,2004,15.25,73788.8,-1.49,-32.75,-32.97,0,*66
1491080510.73,2005,15.25,73788.5,-1.49,-32.57,-32.85,0,*64
1491080512.01,2006,15.19,73782.5,-1.49,-32.63,-32.85,0,*60
1491080513.29,2007,15.19,73786.3,-1.49,-32.63,-32.79,0,*62
1491080514.52,2008,15.25,73790.3,-1.49,-32.29,-32.57,0,*6F
1491080515.8,2009,15.19,73790.3,-1.49,-32.45,-32.75,0,*64
1491080517.02,2010,15.19,73790.8,-1.49,-32.39,-32.57,0,*67
1491080518.28,2011,15.25,73794.3,-1.47,-32.07,-32.23,0,*66
1491080519.55,2012,15.19,73790.0,-1.49,-32.29,-32.63,0,*63
1491080520.81,2013,15.25,73794.0,-1.49,-32.39,-32.75,0,*64
1491080522.06,2014,15.25,73794.3,-1.49,-32.57,-32.79,0,*67
1491080523.34,2015,15.25,73794.5,-1.49,-32.63,-32.79,0,*61
1491080524.57,2016,15.25,73796.5,-1.51,-32.51,-32.85,0,*69
1491080525.79,2017,15.19,73792.8,-1.51,-32.63,-32.91,0,*6C
1491080527.02,2018,15.19,73792.5,-1.51,-32.51,-32.85,0,*67
1491080528.26,2019,15.25,73796.0,-1.51,-32.79,-32.91,0,*69
1491080529.48,2020,15.25,73792.5,-1.51,-32.51,-32.85,0,*6C
1491080530.7,2021,15.19,73784.3,-1.51,-32.35,-32.63,0,*67
1491080531.98,2022,15.25,73788.0,-1.53,-32.29,-32.63,0,*6B
1491080533.2,2023,15.25,73788.3,-1.51,-32.29,-32.51,0,*69
1491080534.45,2024,15.25,73788.0,-1.51,-32.19,-32.29,0,*62
1491080535.72,2025,15.19,73784.5,-1.53,-32.29,-32.45,0,*68
1491080536.96,2026,15.25,73790.5,-1.51,-32.19,-32.51,0,*6F
1491080538.19,2027,15.25,73790.3,-1.53,-32.51,-32.69,0,*6B
1491080539.42,2028,15.25,73792.8,-1.51,-31.95,-32.13,0,*60
1491080540.66,2029,15.19,73792.5,-1.49,-32.29,-32.57,0,*6C
1491080541.89,2030,15.25,73794.3,-1.51,-32.45,-32.69,0,*6A
1491080543.14,2031,15.25,73796.0,-1.51,-32.63,-32.85,0,*6D
1491080544.4,2032,15.19,73796.0,-1.53,-32.79,-33.03,0,*68
1491080545.67,2033,15.19,73792.0,-1.53,-32.29,-32.63,0,*6B
1491080546.89,2034,15.19,73798.5,-1.51,-32.35,-32.63,0,*63
1491080548.12,2035,15.25,73798.0,-1.53,-32.01,-32.13,0,*60
1491080549.38,2036,15.19,73794.3,-1.53,-32.01,-32.19,0,*69
1491080550.63,2037,15.19,73796.3,-1.51,-32.29,-32.63,0,*6D
1491080551.87,2038,15.25,73796.3,-1.53,-32.13,-32.29,0,*67
1491080553.13,2039,15.19,73792.5,-1.53,-32.19,-32.35,0,*61
1491080554.37,2040,15.19,73794.5,-1.51,-32.29,-32.45,0,*69
1491080555.6,2041,15.19,73792.0,-1.51,-32.19,-32.35,0,*6C
1491080556.83,2042,15.19,73790.5,-1.51,-32.29,-32.51,0,*6E
1491080558.06,2043,15.19,73790.8,-1.51,-32.45,-32.69,0,*6E
1491080559.33,2044,15.19,73790.3,-1.53,-32.29,-32.45,0,*6F
1491080560.55,2045,15.25,73792.5,-1.51,-32.13,-32.29,0,*6F
1491080561.81,2046,15.19,73790.5,-1.53,-31.85,-32.01,0,*68
1491080563.01,2047,15.25,73790.8,-1.51,-32.01,-32.13,0,*67
1491080564.27,2048,15.19,73786.5,-1.49,-31.79,-32.07,0,*68
1491080565.52,2049,15.19,73778.8,-1.49,-31.79,-31.91,0,*65
1491080566.72,2050,15.19,73780.8,-1.51,-31.79,-32.01,0,*6E
1491080567.95,2051,15.25,73782.5,-1.51,-32.01,-32.19,0,*6A
1491080569.2,2052,15.19,73780.0,-1.49,-31.91,-32.13,0,*60
1491080570.47,2053,15.19,73778.3,-1.49,-32.07,-32.29,0,*64
1491080571.75,2054,15.25,73784.8,-1.49,-32.07,-32.29,0,*63
1491080573.0,2055,15.19,73780.8,-1.47,-32.13,-32.45,0,*63
1491080574.2,2056,15.19,73780.3,-1.51,-32.35,-32.69,0,*6D
1491080575.45,2057,15.25,73780.8,-1.51,-32.29,-32.63,0,*6B
1491080576.7,2058,15.25,73780.3,-1.49,-32.23,-32.45,0,*63
1491080577.97,2059,15.25,73784.5,-1.49,-32.07,-32.29,0,*6E
1491080579.22,2060,15.19,73782.5,-1.49,-32.07,-32.23,0,*6E
1491080580.47,2061,15.19,73780.8,-1.49,-32.13,-32.29,0,*60
1491080581.75,2062,15.19,73782.5,-1.49,-32.07,-32.45,0,*6C
1491080583.0,2063,15.19,73786.3,-1.49,-32.07,-32.39,0,*66
1491080584.28,2064,15.25,73788.5,-1.49,-32.29,-32.75,0,*65
1491080585.53,2065,15.19,73786.5,-1.47,-32.23,-32.45,0,*63
1491080586.75,2066,15.19,73786.5,-1.49,-32.23,-32.57,0,*6D
1491080587.99,2067,15.25,73790.5,-1.49,-32.13,-32.29,0,*66
1491080589.24,2068,15.19,73788.0,-1.47,-32.23,-32.45,0,*6E
1491080590.49,2069,15.19,73788.3,-1.49,-32.39,-32.63,0,*6E
1491080591.73,2070,15.25,73790.3,-1.49,-32.29,-32.57,0,*60
1491080592.97,2071,15.25,73790.8,-1.49,-32.29,-32.57,0,*61
1491080594.19,2072,15.19,73784.5,-1.49,-32.23,-32.57,0,*68
1491080595.46,2073,15.25,73790.5,-1.49,-32.07,-32.29,0,*66
1491080596.72,2074,15.19,73788.8,-1.49,-32.07,-32.23,0,*6B
1491080597.94,2075,15.25,73790.3,-1.51,-32.19,-32.35,0,*6B
1491080599.2,2076,15.19,73782.5,-1.47,-32.07,-32.23,0,*67
1491080600.45,2077,15.19,73780.8,-1.49,-31.95,-32.13,0,*63
1491080601.7,2078,15.19,73778.3,-1.47,-32.13,-32.29,0,*66
1491080602.95,2079,15.19,73776.8,-1.49,-32.13,-32.45,0,*63
1491080604.2,2080,15.19,73778.8,-1.49,-32.23,-32.45,0,*66
1491080605.47,2081,15.19,73776.5,-1.49,-32.45,-32.63,0,*63
1491080606.75,2082,15.19,73772.5,-1.49,-32.45,-32.79,0,*6B
1491080608.03,2083,15.19,73774.8,-1.49,-32.45,-32.75,0,*66
1491080609.25,2084,15.19,73776.5,-1.49,-32.39,-32.57,0,*6A
1491080610.47,2085,15.19,73772.0,-1.49,-32.23,-32.39,0,*68
1491080611.69,2086,15.19,73772.3,-1.51,-32.13,-32.29,0,*60
1491080612.94,2087,15.19,73776.8,-1.49,-32.23,-32.45,0,*61
1491080614.21,2088,15.19,73768.8,-1.49,-32.07,-32.29,0,*62
1491080615.44,2089,15.19,73766.5,-1.49,-32.23,-32.39,0,*64
1491080616.69,2090,15.19,73782.0,-1.49,-32.07,-32.13,0,*62
1491080617.94,2091,15.19,73784.3,-1.49,-32.13,-32.45,0,*65
1491080619.14,2092,15.19,73784.5,-1.51,-32.35,-32.69,0,*65
1491080620.41,2093,15.19,73790.0,-1.49,-32.29,-32.63,0,*6A
1491080621.66,2094,15.19,73790.5,-1.49,-32.57,-32.79,0,*6F
1491080622.91,2095,15.19,73790.3,-1.49,-32.57,-32.79,0,*6E
1491080624.17,2096,15.25,73794.0,-1.49,-32.39,-32.79,0,*65
1491080625.42,2097,15.19,73790.8,-1.51,-32.63,-32.85,0,*61
1491080626.65,2098,15.19,73788.0,-1.51,-32.79,-33.03,0,*6A
1491080627.89,2099,15.19,73788.3,-1.53,-32.69,-32.91,0,*62
1491080629.11,2100,15.19,73788.5,-1.51,-32.63,-32.91,0,*6B
1491080630.37,2101,15.19,73786.3,-1.53,-32.51,-32.85,0,*6C
1491080631.62,2102,15.19,73786.3,-1.53,-32.63,-33.03,0,*61
1491080632.88,2103,15.19,73784.3,-1.53,-32.45,-32.69,0,*69
1491080634.15,2104,15.19,73784.8,-1.53,-32.29,-32.63,0,*6E
1491080635.38,2105,15.19,73784.3,-1.53,-32.35,-32.69,0,*68
1491080636.63,2106,15.19,73784.8,-1.51,-32.45,-32.63,0,*64
1491080637.86,2107,15.19,73782.8,-1.51,-32.19,-32.69,0,*66
1491080639.14,2108,15.19,73784.0,-1.53,-32.45,-32.79,0,*63
1491080640.38,2109,15.19,73784.8,-1.51,-32.29,-32.45,0,*65
1491080641.61,2110,15.19,73782.8,-1.53,-32.13,-32.35,0,*61
1491080642.86,2111,15.19,73780.3,-1.53,-32.01,-32.29,0,*6E
1491080644.11,2112,15.19,73782.0,-1.53,-32.13,-32.29,0,*6E
1491080645.36,2113,15.19,73790.3,-1.53,-32.13,-32.29,0,*6F
1491080646.59,2114,15.19,73778.8,-1.51,-31.73,-32.01,0,*65
1491080647.82,2115,15.19,73780.3,-1.51,-31.45,-31.73,0,*67
1491080649.07,2116,15.19,73788.3,-1.53,-31.85,-32.01,0,*6C
1491080650.35,2117,15.19,73786.5,-1.49,-31.91,-32.07,0,*65
1491080651.57,2118,15.25,73790.5,-1.49,-32.13,-32.39,0,*6E
1491080652.8,2119,15.19,73790.3,-1.49,-32.13,-32.39,0,*6F
1491080654.02,2120,15.19,73786.3,-1.49,-32.23,-32.57,0,*6E
1491080655.3,2121,15.19,73784.0,-1.49,-32.07,-32.45,0,*6A
1491080656.55,2122,15.19,73786.8,-1.49,-31.79,-31.95,0,*6D
1491080657.8,2123,15.19,73782.8,-1.51,-31.51,-31.73,0,*67
1491080659.02,2124,15.19,73776.5,-1.51,-31.45,-31.73,0,*65
1491080660.27,2125,15.19,73772.0,-1.47,-31.33,-31.57,0,*64
1491080661.53,2126,15.19,73770.8,-1.49,-31.79,-32.07,0,*61
1491080662.78,2127,15.19,73776.5,-1.49,-31.95,-32.23,0,*64
1491080664.04,2128,15.19,73776.8,-1.47,-32.07,-32.23,0,*6D
1491080665.28,2129,15.19,73772.0,-1.47,-32.29,-32.57,0,*63
1491080666.54,2130,15.19,73776.3,-1.47,-32.07,-32.23,0,*64
1491080667.8,2131,15.19,73774.5,-1.47,-31.95,-32.23,0,*6D
1491080669.06,2132,15.19,73770.3,-1.47,-31.95,-32.13,0,*6D
1491080670.34,2133,15.25,73782.8,-1.47,-31.73,-31.95,0,*69
1491080671.57,2134,15.19,73782.3,-1.47,-32.13,-32.39,0,*6E
1491080672.85,2135,15.19,73776.5,-1.47,-32.07,-32.29,0,*6B
1491080674.08,2136,15.25,73776.0,-1.47,-32.13,-32.57,0,*64
1491080675.3,2137,15.19,73776.3,-1.45,-32.19,-32.57,0,*6D
1491080676.56,2138,15.19,73778.0,-1.47,-32.39,-32.63,0,*65
1491080677.79,2139,15.19,73778.8,-1.47,-32.13,-32.39,0,*63
1491080679.03,2140,15.19,73776.3,-1.45,-32.07,-32.39,0,*6A
1491080680.26,2141,15.19,73770.3,-1.47,-32.13,-32.39,0,*6C
1491080681.54,2142,15.25,73772.8,-1.47,-32.29,-32.63,0,*69
1491080682.75,2143,15.19,73772.3,-1.49,-32.23,-32.57,0,*6B
1491080684.0,2144,15.19,73778.0,-1.49,-32.13,-32.29,0,*66
1491080685.25,2145,15.19,73784.5,-1.47,-32.23,-32.45,0,*60
1491080686.51,2146,15.19,73772.8,-1.47,-32.07,-32.23,0,*65
1491080687.77,2147,15.19,73778.8,-1.47,-32.07,-32.39,0,*6F
1491080688.99,2148,15.19,73780.8,-1.47,-32.23,-32.57,0,*6E
1491080690.25,2149,15.19,73786.5,-1.47,-32.07,-32.39,0,*61
1491080691.48,2150,15.19,73780.3,-1.45,-32.07,-32.35,0,*67
1491080692.68,2151,15.19,73784.0,-1.45,-32.39,-32.57,0,*6F
1491080693.89,2152,15.19,73780.0,-1.45,-32.35,-32.69,0,*6D
1491080695.13,2153,15.19,73776.3,-1.45,-32.51,-32.75,0,*63
1491080696.4,2154,15.19,73778.8,-1.47,-32.29,-32.63,0,*6E
1491080697.62,2155,15.19,73776.0,-1.47,-32.39,-32.57,0,*69
1491080698.89,2156,15.19,73786.3,-1.49,-32.29,-32.63,0,*62
1491080700.15,2157,15.19,73786.0,-1.47,-32.39,-32.79,0,*67
1491080701.43,2158,15.19,73782.8,-1.47,-32.63,-32.79,0,*67
1491080702.71,2159,15.19,73780.3,-1.49,-32.45,-32.75,0,*60
1491080703.97,2160,15.19,73778.5,-1.49,-32.57,-32.79,0,*65
1491080705.19,2161,15.19,73784.8,-1.47,-32.39,-32.57,0,*6E
1491080706.48,2162,15.19,73788.0,-1.47,-32.45,-32.75,0,*66
1491080707.7,2163,15.19,73786.3,-1.49,-32.23,-32.39,0,*61
1491080708.96,2164,15.19,73784.0,-1.47,-32.07,-32.39,0,*6E
1491080710.22,2165,15.19,73784.8,-1.47,-32.13,-32.45,0,*61
1491080711.49,2166,15.19,73780.5,-1.49,-31.91,-31.95,0,*6B
1491080712.75,2167,15.25,73786.0,-1.47,-31.79,-32.07,0,*6A
1491080714.01,2168,15.19,73786.5,-1.47,-32.07,-32.23,0,*69
1491080715.27,2169,15.19,73784.0,-1.47,-32.07,-32.23,0,*68
1491080716.52,2170,15.19,73774.3,-1.47,-32.13,-32.45,0,*65
1491080717.75,2171,15.19,73776.8,-1.47,-32.23,-32.57,0,*64
1491080719.0,2172,15.19,73776.0,-1.47,-32.39,-32.79,0,*60
1491080720.29,2173,15.19,73778.0,-1.47,-32.63,-32.85,0,*6D
1491080721.57,2174,15.19,73780.0,-1.47,-32.45,-32.75,0,*61
1491080722.79,2175,15.19,73774.3,-1.47,-32.23,-32.57,0,*60
1491080724.07,2176,15.19,73774.3,-1.47,-32.29,-32.75,0,*69
1491080725.36,2177,15.19,73778.3,-1.47,-32.63,-32.79,0,*6A
1491080726.61,2178,15.19,73776.3,-1.49,-32.57,-32.79,0,*6C
1491080727.87,2179,15.19,73782.3,-1.47,-32.57,-32.79,0,*63
1491080729.15,2180,15.19,73780.0,-1.49,-32.45,-32.79,0,*68
1491080730.37,2181,15.19,73784.0,-1.47,-32.23,-32.57,0,*6B
1491080731.62,2182,15.19,73776.8,-1.49,-32.39,-32.75,0,*6D
1491080732.9,2183,15.19,73772.5,-1.49,-32.45,-32.79,0,*6B
1491080734.18,2184,15.19,73774.3,-1.47,-32.45,-32.85,0,*61
1491080735.43,2185,15.19,73774.8,-1.49,-32.39,-32.75,0,*6A
1491080736.69,2186,15.19,73778.8,-1.47,-32.39,-32.79,0,*6B
1491080737.97,2187,15.19,73776.0,-1.49,-32.45,-32.79,0,*6F
1491080739.22,2188,15.19,73770.3,-1.49,-32.39,-32.75,0,*67
1491080740.5,2189,15.19,73770.3,-1.47,-32.29,-32.63,0,*6E
1491080741.78,2190,15.19,73772.8,-1.49,-32.45,-32.79,0,*69
1491080743.03,2191,15.19,73768.5,-1.49,-32.39,-32.75,0,*6F
1491080744.25,2192,15.19,73770.8,-1.51,-32.35,-32.63,0,*6E
1491080745.5,2193,15.19,73774.8,-1.51,-32.45,-32.79,0,*63
1491080746.76,2194,15.19,73776.5,-1.51,-32.45,-32.79,0,*64
1491080748.01,2195,15.25,73780.8,-1.51,-32.45,-32.85,0,*66
1491080749.24,2196,15.19,73778.5,-1.51,-32.69,-32.85,0,*6B
1491080750.45,2197,15.19,73786.3,-1.51,-32.69,-32.91,0,*6F
1491080751.68,2198,15.19,73782.3,-1.51,-32.51,-32.85,0,*6E
1491080752.91,2199,15.19,73780.8,-1.51,-32.29,-32.69,0,*62
1491080754.16,2200,15.19,73782.3,-1.53,-32.35,-32.79,0,*6F
1491080755.41,2201,15.19,73784.8,-1.53,-32.51,-32.85,0,*6F
1491080756.67,2202,15.19,73782.8,-1.51,-32.45,-32.79,0,*68
1491080757.92,2203,15.19,73784.5,-1.51,-32.45,-32.79,0,*69
1491080759.14,2204,15.19,73780.5,-1.51,-32.35,-32.79,0,*69
1491080760.37,2205,15.19,73778.8,-1.51,-32.51,-32.85,0,*69
1491080761.62,2206,15.19,73772.5,-1.51,-32.45,-32.85,0,*6F
1491080762.88,2207,15.19,73772.8,-1.53,-32.45,-32.69,0,*6E
1491080764.13,2208,15.19,73780.5,-1.51,-32.45,-32.85,0,*61
1491080765.34,2209,15.19,73782.3,-1.51,-32.69,-33.03,0,*61
1491080766.6,2210,15.19,73786.0,-1.53,-32.51,-32.85,0,*6F
1491080767.85,2211,15.19,73786.8,-1.53,-32.63,-32.91,0,*6A
1491080769.08,2212,15.19,73786.3,-1.51,-32.63,-32.91,0,*6B
1491080770.31,2213,15.19,73784.3,-1.53,-32.51,-33.03,0,*63
1491080771.59,2214,15.19,73776.8,-1.53,-32.63,-32.85,0,*6A
1491080772.82,2215,15.19,73776.3,-1.53,-32.13,-32.51,0,*65
1491080774.02,2216,15.19,73778.5,-1.55,-32.23,-32.57,0,*65
1491080775.27,2217,15.19,73784.0,-1.51,-32.19,-32.63,0,*6E
1491080776.5,2218,15.19,73788.3,-1.53,-32.01,-32.35,0,*69
1491080777.78,2219,15.19,73792.8,-1.53,-32.19,-32.45,0,*66
1491080779.06,2220,15.19,73790.5,-1.53,-32.19,-32.45,0,*6C
1491080780.27,2221,15.19,73784.5,-1.55,-32.01,-32.23,0,*62
1491080781.52,2222,15.19,73778.0,-1.51,-31.73,-31.95,0,*6D
1491080782.78,2223,15.19,73782.3,-1.53,-32.19,-32.35,0,*68
1491080784.01,2224,15.19,73778.0,-1.53,-32.01,-32.35,0,*66
1491080785.23,2225,15.19,73784.5,-1.51,-32.19,-32.35,0,*6C
1491080786.5,2226,15.19,73780.3,-1.53,-32.01,-32.19,0,*6A
1491080787.75,2227,15.19,73786.8,-1.53,-32.01,-32.29,0,*68
1491080789.0,2228,15.19,73786.5,-1.53,-32.29,-32.69,0,*69
1491080790.25,2229,15.19,73788.5,-1.51,-32.45,-32.79,0,*61
1491080791.48,2230,15.19,73786.8,-1.51,-32.13,-32.45,0,*65
1491080792.73,2231,15.19,73786.3,-1.51,-32.19,-32.63,0,*6A
1491080793.96,2232,15.19,73790.0,-1.51,-31.95,-32.35,0,*6D
1491080795.21,2233,15.19,73796.0,-1.51,-32.19,-32.63,0,*68
1491080796.44,2234,15.19,73792.8,-1.51,-32.51,-32.79,0,*68
1491080797.69,2235,15.19,73794.0,-1.51,-32.29,-32.63,0,*6D
1491080798.94,2236,15.19,73794.5,-1.51,-32.19,-32.45,0,*69
1491080800.22,2237,15.19,73784.5,-1.53,-32.19,-32.45,0,*6A
1491080801.45,2238,15.19,73784.8,-1.53,-32.01,-32.35,0,*6B
1491080802.68,2239,15.19,73788.3,-1.51,-31.85,-32.01,0,*60
1491080803.94,2240,15.19,73792.3,-1.51,-31.95,-32.19,0,*66
1491080805.14,2241,15.19,73792.3,-1.51,-32.13,-32.35,0,*64
1491080806.39,2242,15.19,73792.8,-1.49,-32.13,-32.45,0,*69
1491080807.64,2243,15.19,73786.8,-1.49,-32.39,-32.63,0,*64
1491080808.91,2244,15.19,73786.3,-1.49,-32.45,-32.79,0,*63
1491080810.19,2245,15.19,73784.8,-1.53,-32.45,-32.79,0,*69
1491080811.44,2246,15.19,73792.3,-1.51,-32.45,-32.85,0,*6B
1491080812.7,2247,15.19,73794.5,-1.51,-32.45,-32.85,0,*6A
1491080813.93,2248,15.19,73798.0,-1.51,-32.51,-32.85,0,*60
1491080815.18,2249,15.19,73798.8,-1.51,-32.45,-32.85,0,*64
1491080816.42,2250,15.19,73798.5,-1.51,-32.69,-32.85,0,*62
1491080817.67,2251,15.19,73802.3,-1.51,-32.63,-32.85,0,*69
1491080818.9,2252,15.19,73796.0,-1.51,-32.63,-32.91,0,*6F
1491080820.18,2253,15.19,73792.8,-1.53,-32.63,-32.85,0,*69
1491080821.39,2254,15.19,73794.8,-1.51,-32.69,-32.91,0,*63
1491080822.64,2255,15.19,73794.8,-1.53,-32.85,-33.03,0,*68
1491080823.87,2256,15.19,73794.0,-1.53,-32.91,-33.21,0,*6E
1491080825.12,2257,15.19,73794.8,-1.53,-33.03,-33.27,0,*63
1491080826.4,2258,15.19,73794.3,-1.53,-32.63,-32.85,0,*62
1491080827.66,2259,15.19,73788.5,-1.53,-32.51,-32.85,0,*62
1491080828.94,2260,15.19,73792.3,-1.53,-32.45,-32.85,0,*6D
1491080830.17,2261,15.19,73792.8,-1.53,-32.69,-33.03,0,*6D
1491080831.43,2262,15.19,73788.0,-1.53,-32.85,-33.03,0,*6C
1491080832.66,2263,15.19,73790.8,-1.55,-32.69,-32.97,0,*65
1491080833.87,2264,15.19,73792.3,-1.55,-32.51,-32.91,0,*6F
1491080835.13,2265,15.19,73790.3,-1.59,-32.75,-33.09,0,*64
1491080836.38,2266,15.19,73784.5,-1.53,-32.35,-32.79,0,*6F
1491080837.58,2267,15.19,73782.5,-1.55,-32.51,-32.91,0,*6C
1491080838.81,2268,15.19,73786.3,-1.55,-32.35,-32.75,0,*6B
1491080840.05,2269,15.19,73774.5,-1.59,-31.85,-32.01,0,*6D
1491080841.31,2270,15.19,73778.8,-1.55,-31.91,-32.19,0,*65
1491080842.51,2271,15.19,73776.5,-1.55,-32.23,-32.51,0,*62
1491080843.72,2272,15.19,73776.3,-1.55,-32.23,-32.51,0,*61
1491080844.93,2273,15.19,73776.5,-1.55,-32.39,-32.91,0,*67
1491080846.13,2274,15.19,73782.0,-1.55,-32.39,-32.69,0,*67
1491080847.37,2275,15.19,73778.8,-1.55,-32.39,-32.75,0,*6B
1491080848.6,2276,15.19,73778.0,-1.55,-32.51,-32.85,0,*69
1491080849.84,2277,15.19,73774.8,-1.55,-32.51,-32.85,0,*68
1491080851.04,2278,15.19,73774.8,-1.55,-32.51,-32.69,0,*65
1491080852.28,2279,15.19,73778.3,-1.55,-32.51,-32.75,0,*69
1491080853.52,2280,15.19,73772.3,-1.59,-32.51,-32.85,0,*6C
1491080854.75,2281,15.19,73780.5,-1.59,-32.35,-32.85,0,*6F
1491080855.98,2282,15.19,73782.8,-1.59,-32.35,-32.75,0,*63
1491080857.18,2283,15.19,73778.3,-1.55,-32.39,-32.57,0,*62
1491080858.4,2284,15.19,73778.8,-1.55,-32.35,-32.75,0,*69
1491080859.64,2285,15.19,73780.0,-1.55,-32.57,-32.85,0,*63
1491080860.88,2286,15.19,73778.0,-1.55,-32.51,-32.75,0,*69
1491080862.08,2287,15.19,73776.0,-1.55,-32.35,-32.69,0,*67
1491080863.31,2288,15.19,73776.8,-1.55,-32.39,-32.75,0,*69
1491080864.52,2289,15.19,73772.3,-1.55,-32.23,-32.51,0,*65
1491080865.76,2290,15.19,73774.3,-1.55,-32.07,-32.39,0,*65
1491080866.99,2291,15.19,73776.3,-1.55,-32.23,-32.75,0,*6A
1491080868.18,2292,15.19,73772.3,-1.55,-32.35,-32.57,0,*6E
1491080869.39,2293,15.19,73778.3,-1.55,-32.23,-32.39,0,*60
1491080870.58,2294,15.19,73780.3,-1.55,-32.23,-32.57,0,*6F
1491080871.78,2295,15.19,73778.8,-1.55,-32.23,-32.57,0,*6E
1491080872.97,2296,15.19,73774.3,-1.55,-32.35,-32.57,0,*6A
1491080874.18,2297,15.19,73776.0,-1.55,-32.57,-32.91,0,*65
1491080875.41,2298,15.19,73780.5,-1.55,-32.57,-32.85,0,*6F
1491080876.62,2299,15.19,73780.3,-1.55,-32.35,-32.69,0,*68
1491080877.81,2300,15.19,73776.8,-1.55,-32.39,-32.57,0,*68
1491080879.05,2301,15.19,73782.8,-1.55,-32.39,-32.75,0,*69
1491080880.25,2302,15.19,73778.5,-1.55,-32.39,-32.57,0,*6A
1491080881.45,2303,15.19,73780.5,-1.55,-32.35,-32.51,0,*61
1491080882.65,2304,15.19,73782.0,-1.55,-32.35,-32.57,0,*60
1491080883.9,2305,15.19,73782.3,-1.53,-32.29,-32.51,0,*6C
1491080885.09,2306,15.19,73776.8,-1.55,-32.35,-32.57,0,*62
1491080886.3,2307,15.19,73774.0,-1.55,-32.23,-32.51,0,*62
1491080887.53,2308,15.19,73778.8,-1.55,-32.07,-32.35,0,*69
1491080888.76,2309,15.19,73774.8,-1.53,-32.13,-32.35,0,*6B
1491080890.01,2310,15.19,73782.5,-1.53,-32.29,-32.69,0,*63
1491080891.27,2311,15.19,73782.5,-1.53,-32.45,-32.69,0,*68
1491080892.52,2312,15.19,73786.8,-1.53,-32.29,-32.69,0,*61
1491080893.74,2313,15.19,73778.8,-1.53,-32.35,-32.69,0,*6D
1491080894.99,2314,15.19,73786.0,-1.53,-32.35,-32.63,0,*60
1491080896.21,2315,15.19,73788.5,-1.53,-32.35,-32.69,0,*6B
1491080897.46,2316,15.19,73786.8,-1.53,-32.35,-32.63,0,*62
1491080898.72,2317,15.19,73786.3,-1.53,-32.45,-32.69,0,*6E
1491080899.97,2318,15.19,73788.3,-1.53,-32.45,-32.69,0,*61
1491080901.17,2319,15.19,73786.0,-1.51,-32.35,-32.69,0,*65
1491080902.45,2320,15.19,73786.5,-1.53,-32.45,-32.85,0,*68
1491080903.7,2321,15.19,73784.5,-1.53,-32.35,-32.63,0,*66
1491080904.94,2322,15.19,73784.5,-1.53,-32.35,-32.63,0,*65
1491080906.19,2323,15.19,73786.5,-1.53,-32.35,-32.63,0,*64